Regional Weather Roundup
Issued by NWS Midland/Odessa, TX

Skip options and go directly to product.
Home | Oldest Version | Previous Version | Current Version | All | Text Only | Save Text | Print | Product List | Glossary Off

Skip product version selection by date and time.   

065
ASUS44 KMAF 230210
RWRMAF
MIDLAND AREA WEATHER ROUNDUP
NATIONAL WEATHER SERVICE MIDLAND TX
900 PM CDT MON SEP 22 2014

...IN SOUTHWEST TEXAS AND SOUTHEAST NEW MEXICO...

CITY           SKY/WX    TMP DP  RH WIND       PRES   REMARKS
ALPINE         CLOUDY    68  49  50 E5        30.30R
ANDREWS        FAIR      69  64  84 E6        30.21R
ARTESIA        NOT AVBL
BIG SPRING     PTCLDY    75  65  70 NE9       30.20R
CARLSBAD       CLOUDY    69  32  25 SW3       30.18S
DRYDEN           N/A     80  56  43 E5        30.12R
FORT STOCKTON  CLOUDY    74  55  51 SE7       30.18R
GUAD PASS      LGT RAIN  61  61 100 NE25        N/A  FOG
HOBBS          CLOUDY    68  66  94 CALM      30.24R
MARFA          CLOUDY    66  55  68 NE7       30.28R
MIDLAND AIRPK  NOT AVBL
MIDLAND INTL   MOCLDY    73  62  68 SE7       30.17R
ODESSA           N/A     72  62  71 E6        30.19R
PECOS          CLOUDY    72  63  73 SE6       30.15R
PRESIDIO       FAIR      80  56  43 NE10      30.11R
SEMINOLE       MOCLDY    69  65  88 CALM      30.23R
SNYDER         MOCLDY    73  64  74 NE6       30.19R
WINK           CLOUDY    75  63  66 E5        30.15R
$$
...OTHER STATIONS IN TEXAS...

CITY           SKY/WX    TMP DP  RH WIND       PRES   REMARKS
ABILENE        PTCLDY    79  61  53 E6        30.15R
AMARILLO       PTCLDY    66  59  78 SE12      30.23S
AUSTIN         PTCLDY    81  69  67 E5        30.07R
BROWNSVILLE    PTCLDY    80  74  81 NE6       29.99R
CORPUS CHRISTI PTCLDY    79  72  79 SE8       30.01R
DALLAS FTW     PTCLDY    77  50  38 NE12      30.13R
DEL RIO        CLEAR     82  64  54 SW3       30.05R
EL PASO        CLOUDY    70  66  87 E5        30.17R
HOUSTON INT    PTCLDY    80  67  64 NE8       30.05R
LUBBOCK        MOCLDY    68  62  81 E8        30.23R
SAN ANGELO     PTCLDY    76  67  73 E3        30.13R
SAN ANTONIO    PTCLDY    85  67  54 E12       30.07R
WACO           CLEAR     75  56  51 NE6       30.10R
WICHITA FALLS  NOT AVBL
$$
...OTHER LOCATIONS IN NEW MEXICO...

CITY           SKY/WX    TMP DP  RH WIND       PRES   REMARKS
ALAMAGORDO     NOT AVBL
ALBUQUERQUE    CLOUDY    69  58  67 SW8       30.24R
CANNON AFB     HVY RAIN  64  64 100 S7        30.27R
CLOVIS           N/A     66  63  88 SE6       30.29R
HOLLOMAN AFB   NOT AVBL
ROSWELL        CLOUDY    68  65  90 SE5       30.21R
RUIDOSO        CLOUDY    57  57 100 SE9       30.37F FOG
SANTA FE       LGT RAIN  66  57  72 SE17G25   30.28R
TRUTH OR CONSE MOCLDY    69  63  81 SE10      30.20R
TUCUMCARI      MOCLDY    65  60  84 S6        30.23R
$$

USA.gov is the U.S. government's official web portal to all federal, state and local government web resources and services.